This is the latest recevied weather packets stored in our database for station/object WB4YDL. If no packets are shown the sender has not sent any weather packets the latest 10 day(s).
| Time | Temp. | Humidity | Pressure | Rain* | Wind** | Luminosity | Snow |
|---|---|---|---|---|---|---|---|
| 1777907393 | 22.78° C | 62% | 1007.2 hPa | 0 mm | - | 518 W/m² | - |
| 1777907090 | 22.78° C | 61% | 1007.2 hPa | 0 mm | - | 531 W/m² | - |
| 1777906788 | 22.78° C | 62% | 1006.9 hPa | 0 mm | - | 613 W/m² | - |
| 1777906485 | 22.22° C | 62% | 1007.2 hPa | 0 mm | - | 498 W/m² | - |
| 1777906181 | 22.22° C | 62% | 1007 hPa | 0 mm | - | 451 W/m² | - |
| 1777905878 | 22.22° C | 62% | 1007.3 hPa | 0 mm | - | 400 W/m² | - |
| 1777905574 | 21.67° C | 64% | 1007.4 hPa | 0 mm | - | 493 W/m² | - |
| 1777905271 | 21.67° C | 65% | 1007 hPa | 0 mm | - | 485 W/m² | - |
| 1777904968 | 21.11° C | 65% | 1007.3 hPa | 0 mm | - | 471 W/m² | - |
| 1777904666 | 21.11° C | 65% | 1007.5 hPa | 0 mm | - | 373 W/m² | - |
| 1777904363 | 21.11° C | 68% | 1007.3 hPa | 0 mm | - | 457 W/m² | - |
| 1777904059 | 20.56° C | 70% | 1007.5 hPa | 0 mm | - | 412 W/m² | - |
| 1777903756 | 20.56° C | 69% | 1007.4 hPa | 0 mm | - | 405 W/m² | - |
| 1777903452 | 20° C | 71% | 1007.3 hPa | 0 mm | - | 411 W/m² | - |
| 1777903149 | 20° C | 69% | 1007.5 hPa | 0 mm | - | 382 W/m² | - |
| 1777902845 | 19.44° C | 72% | 1007.3 hPa | 0 mm | - | 389 W/m² | - |
| 1777902543 | 19.44° C | 71% | 1007.5 hPa | 0 mm | - | 367 W/m² | - |
| 1777902239 | 18.89° C | 73% | 1007.5 hPa | 0 mm | - | 305 W/m² | - |
| 1777901938 | 18.89° C | 72% | 1007.5 hPa | 0 mm | - | 238 W/m² | - |
| 1777901635 | 18.89° C | 73% | 1007.4 hPa | 0 mm | - | 252 W/m² | - |
| 1777901332 | 18.33° C | 74% | 1007.3 hPa | 0 mm | - | 270 W/m² | - |
| 1777901029 | 17.78° C | 75% | 1007.2 hPa | 0 mm | - | 228 W/m² | - |
| 1777900727 | 17.78° C | 75% | 1007.4 hPa | 0 mm | - | 218 W/m² | - |
| 1777900423 | 17.78° C | 75% | 1007.5 hPa | 0 mm | - | 200 W/m² | - |
| 1777900121 | 17.78° C | 76% | 1007.3 hPa | 0 mm | - | 178 W/m² | - |
* Rain latest hour (hover to see other rain measurements)
** Current wind speed in m/s (hover to see current wind gust speed)